Hourly Data Report for October 12, 2015

All times are specified in Local Standard Time (LST). Add 1 hour to adjust for Daylight Saving Time where and when it is observed.

KITCHENER/WATERLOO
ONTARIO

43°27'39.000" N
80°22'43.000" W
321.60 m
6144239
71368
YKF

Download Data

Hourly Data (October 2015)
Hourly Data Report for October 12, 2015
Temp Definition
°C
Dew Point Temp Definition
°C
Rel Hum Definition
%
Wind Dir Definition
10's deg

Wind Spd Definition
km/h
Visibility Definition
km
Stn Press Definition
kPa
Hmdx Definition


Wind Chill Definition


Weather Definition


TIME
00:00 Legend Double Dagger 14.1 8.6 69 22 13 16.1 96.94     LegendNANA
01:00 Legend Double Dagger 13.2 9.3 77 22 15 16.1 96.94     LegendNANA
02:00 Legend Double Dagger 13.2 9.3 77 23 13 16.1 96.93     LegendNANA
03:00 Legend Double Dagger 13.0 9.7 80 21 15 16.1 96.87     LegendNANA
04:00 Legend Double Dagger 12.9 9.8 81 21 17 16.1 96.83     LegendNANA
05:00 Legend Double Dagger 12.6 9.6 82 21 13 16.1 96.83     LegendNANA
06:00 Legend Double Dagger 11.9 9.8 87 19 13 16.1 96.79     LegendNANA
07:00 Legend Double Dagger 12.5 11.3 92 20 18 16.1 96.79     LegendNANA
08:00 Legend Double Dagger 14.2 11.7 85 19 18 16.1 96.78     LegendNANA
09:00 Legend Double Dagger 16.7 11.9 73 19 24 16.1 96.71     LegendNANA
10:00 Legend Double Dagger 18.8 11.6 62 20 24 16.1 96.70     LegendNANA
11:00 Legend Double Dagger 20.6 10.4 52 20 26 16.1 96.57     LegendNANA
12:00 Legend Double Dagger 21.6 10.2 48 19 32 16.1 96.48     LegendNANA
13:00 Legend Double Dagger 21.8 10.4 48 18 41 16.1 96.36     LegendNANA
14:00 Legend Double Dagger 21.8 10.3 48 18 32 16.1 96.26     LegendNANA
15:00 Legend Double Dagger 21.1 9.5 47 20 32 16.1 96.27     LegendNANA
16:00 Legend Double Dagger 20.9 8.9 46 19 24 16.1 96.21     LegendNANA
17:00 Legend Double Dagger 20.1 8.6 47 19 26 16.1 96.18     LegendNANA
18:00 Legend Double Dagger 19.7 8.8 49 18 22 16.1 96.17     LegendNANA
19:00 Legend Double Dagger 19.4 8.6 49 18 18 16.1 96.13     LegendNANA
20:00 Legend Double Dagger 18.9 9.2 53 19 21 16.1 96.07     LegendNANA
21:00 Legend Double Dagger 18.2 9.4 56 19 21 16.1 95.99     LegendNANA
22:00 Legend Double Dagger 18.0 9.9 59 18 17 16.1 95.95     LegendNANA
23:00 Legend Double Dagger 17.4 10.6 64 19 15 16.1 95.87     LegendNANA

Notes on Data Quality.

Legend

  • E = Estimated
  • M = Missing
  • NA = Not Available
  • ‡ = Partner data that is not subject to review by the National Climate Archives
Date modified: